Location: Karlovy Vary
(50.2170°N, 12.9000°E)
Time: 12:15:43
(UTC+01:00)

ISS - Visible Passes

Search period start: 10 December 2019 00:00
Search period end: 20 December 2019 00:00
Orbit: 411 x 421 km, 51.6° (Epoch: 10 December)

Date Brightness Start Highest point End Pass type
(mag) Time Alt. Az. Time Alt. Az. Time Alt. Az.
10 Dec -2.6 16:49:43 10° WNW 16:52:58 46° SSW 16:56:12 10° SE visible
10 Dec -0.4 18:28:16 10° WSW 18:29:04 11° SW 18:29:50 10° SSW visible
11 Dec -0.7 17:38:38 10° W 17:40:49 16° SW 17:42:59 10° S visible
12 Dec -1.1 16:49:44 10° W 16:52:30 24° SW 16:55:15 10° SSE visible
14 Dec -0.1 16:50:42 10° WSW 16:51:49 11° SW 16:52:56 10° SSW visible
